www.pogodaiklimat.ru

Погода и климат >> Архив погоды >> Иран >> Khark


ПОГОДА в Khark

  • Прогноз погоды в Khark
  • Монитор погоды в Khark
  • Климат города

АРХИВ ПОГОДЫ в Khark

Время (UTC), дата Ветер
(напр.,м/с)
 
Видим.   Явления Облачность Т
(С)
Тd
(С)
f
(%)
Тe
(С)
Тes
(С)
Комфортность P
(гПа)
Po
(гПа)
Тmin
(С)
Tmax
(С)
R
(мм)
R24
(мм)
S
(см)
09 13.09 ЮЗ 3 7000 м мгла ясно +37.1 +29.1 64 +61 +75 опасность
перегрева
1004.1 1003.6
12 13.09 ЮЗ 3 10 км ясно +37.9 +27.6 56 +57 +63 опасность
перегрева
1002.5 1002.0
15 13.09 В 2 8000 м мгла ясно +34.4 +29.6 76 +60 +60 опасность
перегрева
1002.1 1001.6 +38.4
03 14.09 В 2 4000 м дымка ясно +31.3 +30.1 93 +58 +58 опасность
перегрева
1002.3 1001.8 +29.0
06 14.09 ЮВ 4 5000 м дымка ясно +33.7 +30.9 85 +64 +71 опасность
перегрева
1003.3 1002.8
09 14.09 З 5 7000 м мгла ясно +38.0 +29.6 63 +63 +72 опасность
перегрева
1002.6 1002.1
12 14.09 З 3 10 км ясно +37.9 +28.9 60 +60 +66 опасность
перегрева
1001.5 1001.0
15 14.09 СЗ 3 5000 м дымка ясно +33.7 +31.3 87 +65 +65 опасность
перегрева
1001.7 1001.2 +39.2
03 15.09 штиль 0 4000 м дымка ясно +30.5 +29.9 97 +56 +56 опасность
перегрева
1003.9 1003.4 +28.7
06 15.09 ЮВ 3 5000 м дымка ясно +34.0 +30.3 81 +62 +71 опасность
перегрева
1005.4 1004.9
09 15.09 С 3 6000 м мгла ясно +35.3 +30.5 76 +64 +78 опасность
перегрева
1004.8 1004.3
12 15.09 ЮЗ 3 10 км ясно +37.9 +27.6 56 +57 +63 опасность
перегрева
1003.7 1003.2
15 15.09 штиль 0 8000 м мгла ясно +33.9 +28.7 74 +56 +56 опасность
перегрева
1004.0 1003.5 +39.1
03 16.09 штиль 0 3000 м дымка ясно +29.0 +28.7 98 +50 +50 опасность
перегрева
1004.7 1004.2 +28.9
06 16.09 В 3 5000 м дымка ясно +34.4 +30.8 82 +65 +73 опасность
перегрева
1005.4 1004.9
09 16.09 З 4 10 км ясно +36.7 +28.9 64 +59 +71 опасность
перегрева
1004.5 1004.0
12 16.09 ЮЗ 4 10 км ясно +36.3 +29.8 69 +62 +67 опасность
перегрева
1003.0 1002.5
15 16.09 З 2 5000 м дымка ясно +33.5 +30.3 83 +61 +61 опасность
перегрева
1003.2 1002.7 +37.5
03 17.09 штиль 0 4000 м дымка 1/1 600 м
[St]
+30.0 +29.5 97 +54 +54 опасность
перегрева
1002.9 1002.4 +29.6
06 17.09 ЮВ 4 5000 м мгла 1/1 600 м
[St]
+34.6 +30.5 79 +63 +69 опасность
перегрева
1004.0 1003.5
09 17.09 ЮВ 5 5000 м мгла ясно +36.1 +30.0 71 +63 +72 опасность
перегрева
1003.3 1002.8
12 17.09 ЮЗ 3 5000 м мгла ясно +36.3 +30.6 73 +66 +71 опасность
перегрева
1002.3 1001.8
15 17.09 Ю 2 5000 м дымка 1/1 600 м
[St]
+33.7 +30.6 84 +63 +63 опасность
перегрева
1002.8 1002.3 +37.1
03 18.09 ЮВ 2 5000 м дымка 1/1 600 м
[St]
+31.2 +29.1 89 +55 +55 опасность
перегрева
1004.6 1004.1 +30.3
06 18.09 ЮВ 3 7000 м мгла ясно +34.9 +29.1 72 +59 +67 опасность
перегрева
1006.1 1005.6
09 18.09 Ю 5 10 км ясно +35.9 +28.6 66 +58 +67 опасность
перегрева
1005.3 1004.8
12 18.09 Ю 3 10 км ясно +36.8 +29.5 66 +61 +67 опасность
перегрева
1003.9 1003.4
15 18.09 штиль 0 10 км 1/1 900 м
[Cb calv]
+33.6 +29.2 78 +58 +58 опасность
перегрева
1005.0 1004.5 +37.5
03 19.09 штиль 0 7000 м дымка ясно +31.0 +28.6 87 +53 +53 опасность
перегрева
1006.3 1005.8 +30.6
06 19.09 В 3 8000 м мгла ясно +34.9 +30.6 78 +64 +72 опасность
перегрева
1007.5 1007.0
09 19.09 СЗ 3 8000 м мгла ясно +36.0 +30.7 74 +65 +79 опасность
перегрева
1006.5 1006.0
12 19.09 З 4 10 км ясно +36.7 +28.7 64 +59 +64 опасность
перегрева
1005.1 1004.6
15 19.09 З 2 10 км ясно +33.6 +29.2 78 +58 +58 опасность
перегрева
1005.5 1005.0 +37.6
03 20.09 З 2 7000 м дымка ясно +30.3 +28.5 90 +51 +51 опасность
перегрева
1005.3 1004.8 +29.3

 

Местоположение метеостанции Khark (Иран): широта 29.26 долгота 50.32 высота над уровнем моря 3 м.

В архиве по умолчанию представлена погода в Khark за последнюю неделю. Архивные данные за месяц целиком и за предыдущие месяцы, начиная с января 2011 года, Вы можете получить, выбрав интересующий диапазон дат из раскрывающегося списка и нажав кнопку "Ввод!".


*Определитесь, кто Вы:
робот инопланетянин человек

Внимание! Время в таблицах - всемирное. Для получения местного времени необходимо прибавить поправку, которая в Khark равна 3.5 ч.

Смотрите также архив погоды в соседних городах и на ближайших метеорологических станциях:

Погода в Bushehr Airport (Иран) (59 км)
Погода в Bushehr (Иран) (62 км)
Погода в Gach Saran (Иран) (137 км)
Погода в Nuwasib (Кувейт) (175 км)
Погода в Umm-Al-Maradim (Кувейт) (175 км)
Погода в Omidieh (Иран) (179 км)
Погода в Fao (Ирак) (193 км)
Погода в Bubiyan (Кувейт) (196 км)
Погода в Yasuj (Иран) (198 км)
Погода в Failaka Island (Кувейт) (199 км)

Пояснения к столбцам:

Ветер - указаны скорость ветра в м/с - средняя за 10 мин, порывы в срок и между сроками (в фигурных скобках) и направление, откуда дует ветер: С - северный, СВ - северо-восточный, В - восточный, ЮВ - юго-восточный, Ю - южный, ЮЗ - юго-западный, З - западный, СЗ - северо-западный.
Видимость - горизонтальная дальность видимости в метрах или километрах. При видимости от 1 до 10 км при отсутствии осадков обычно наблюдается дымка, при ухудшении видимости до 1 км и менее - туман. В сухую погоду видимость может ухудшаться дымом, пылью или мглою.
Явления - указаны атмосферные явления, наблюдавшиеся в срок или в последний час перед сроком; фигурными скобками обозначены явления, наблюдавшиеся между сроками (за 1-3 часа до срока); квадратными скобками обозначены град или гололедные отложения с указанием их диаметра в мм.
Облачность - указаны через наклонную черту общая и нижняя облачность в баллах и высота нижней границы облаков в метрах; квадратными скобками обозначены формы облаков: Ci - перистые, Cs - перисто-слоистые, Cc - перисто-кучевые, Ac - высококучевые, As - высокослоистые, Sc - слоисто-кучевые, Ns - слоисто-дождевые, Cu - кучевые, Cb - кучево-дождевые. Подробнее классификацию облаков см. в Атласе облаков (PDF).
T - Температура воздуха - температура, измеренная на высоте 2 м над землей.
Td - Температура точки росы - температура, при понижении до которой содержащийся в воздухе водяной пар достигнет насыщения.
f - Относительная влажность воздуха - влажноcть воздуха, измеренная на высоте 2 м над землей.
Te - Эффективная температура - температура, которую ощущает одетый по сезону человек в тени. Характеристика душности погоды. При расчете учитывается влияние влажности воздуха и скорости ветра на теплоощущения человека.
Tes - Эффективная температура на солнце - температура, которую ощущает человек, с поправкой на солнечный нагрев. Характеристика знойности погоды. Зависит от высоты солнца над горизонтом, облачности и скорости ветра. Ночью, в пасмурную погоду, а также при ветре 12 м/с и более поправка равна нулю.
P - Атмосферное давление - приведенное к уровню моря атмосферное давление.
Po - Атмосферное давление - измеренное на уровне метеостанции атмосферное давление.
Tmin - Минимальная температура - минимум температуры воздуха на высоте 2 м над землей.
Tmax - Максимальная температура - максимум температуры воздуха на высоте 2 м над землей.
R - Количество осадков - Количество выпавших осадков за период времени, мм. При наведении курсора мыши на число - период времени, за который выпало указанное количество осадков.
R24 - Количество осадков - Количество выпавших осадков за 24 часа, мм.
S - Снежный покров - Высота снежного покрова, см. При наведении курсора мыши на число - состояние снежного покрова и степень покрытия местности в баллах.